Regional Weather Roundup
Issued by NWS

Home | Current Version | Previous Version | Graphics & Text | Print | Product List | Glossary On
Versions: 1 2 3 4 5 6 7 8 9 10 11 12 13 14 15 16 17 18 19 20 21 22 23 24 25 26 27 28 29 30 31 32 33 34 35 36 37 38 39 40 41 42 43 44 45 46 47 48 49 50
196
ASUS43 KMPX 112010
RWRMN
WEATHER ROUNDUP FOR MINNESOTA
NATIONAL WEATHER SERVICE TWIN CITIES/CHANHASSEN MN
200 PM CST THU FEB 11 2016


NOTE: "FAIR" INDICATES FEW OR NO CLOUDS BELOW 12,000 FEET WITH NO
SIGNIFICANT WEATHER AND/OR OBSTRUCTIONS TO VISIBILITY. N/A MEANS
CURRENT SKY AND/OR WEATHER CONDITIONS ARE NOT AVAILABLE.

MNZ060>063-068>070-112100-
   Twin Cities Metro

CITY           SKY/WX    TMP DP  RH WIND       PRES   REMARKS
TWIN CITIES    CLOUDY    16  -4  41 SW7       30.25F WCI   6
ST PAUL        CLOUDY    16  -2  45 SW7       30.26F WCI   6
CRYSTAL        CLOUDY    16  -2  45 W7        30.23F WCI   6
BLAINE         CLOUDY    18   0  45 CALM      30.23F
LAKEVILLE      CLOUDY    16   1  53 S5        30.24F WCI   9
EDEN PRAIRIE   CLOUDY    16  -1  47 S9        30.24F WCI   4
SOUTH ST PAUL  CLOUDY    17  -1  46 S9        30.25F WCI   5
LAKE ELMO      CLOUDY    18   3  53 S8        30.25F WCI   7
$$
MNZ001>005-007-008-013>017-022>024-027-028-112100-
   Northwest Minnesota

CITY           SKY/WX    TMP DP  RH WIND       PRES   REMARKS
BEMIDJI        CLOUDY    11  -5  49 W8        30.16F WCI  -1
HALLOCK        LGT SNOW  12   7  79 W6        30.22S WCI   3
ROSEAU         MOSUNNY   10   3  72 W9        30.18F WCI  -2
WARROAD        CLOUDY    10   1  67 SW10      30.17F WCI  -3
THIEF RVR FALL CLOUDY    10   0  61 W8        30.20F WCI  -1
CROOKSTON      CLOUDY    10   3  72 W5        30.23F WCI   2
FOSSTON        CLOUDY    10   1  67 SW6       30.19F WCI   1
DETROIT LAKES  CLOUDY    16   5  62 SW3       30.17F
MOORHEAD       CLOUDY    12   3  67 SW3       30.22F
PARK RAPIDS    CLOUDY    13   0  56 SW7       30.16S WCI   3
MAHNOMEN       CLOUDY    10   2  71 SW6       30.19S WCI   0
$$
MNZ006-009>011-018-025>026-112100-
   North Central Minnesota

CITY           SKY/WX    TMP DP  RH WIND       PRES   REMARKS
BAUDETTE       CLOUDY    11  -5  48 W5        30.14F WCI   3
FLAG ISLAND    CLOUDY     5  -2  72 S6        30.15F WCI  -6
INTL FALLS     PTSUNNY   11  -6  46 W9        30.13F WCI  -2
WASKISH        CLOUDY    10   0  61 SW9       30.16F WCI  -2
LONGVILLE      CLOUDY    12  -2  52 SW3       30.17F
GRAND RAPIDS   CLOUDY    10  -6  48 W7        30.15F WCI   0
CRANE LAKE     CLOUDY    10  -8  44 W5        30.15F WCI   2
ORR            CLOUDY    10  -8  44 CALM      30.10F
COOK           CLOUDY    10  -6  48 W6        30.12F WCI   1
WALKER         CLOUDY    12  -4  49 W6        30.16F WCI   2
$$
MNZ012-019>021-037-112100-
   Northeast Minnesota

CITY           SKY/WX    TMP DP  RH WIND       PRES   REMARKS
DULUTH         MOSUNNY   11  -5  48 W10       30.13F WCI  -3
ELY            MOSUNNY   10  -2  56 NW8       30.10F WCI  -1
HIBBING        MIX PCPN   9  -8  46 W9        30.13F WCI  -4
EVELETH        SUNNY     12  -4  48 W9        30.13F WCI   0
DULUTH HARBOR  CLOUDY    12  -4  48 SW10      30.22F WCI  -1
TWO HARBORS    MOSUNNY   16   0  48 W8        30.13F WCI   5
SILVER BAY     PTSUNNY   19  -6  32 W5        30.10F WCI  13
GRAND MARAIS     N/A     17   5  59 SW15      30.14F WCI   2
G MARAIS ARPRT MOSUNNY   10  -4  52 W7        30.02F WCI   0
$$
MNZ029>031-032-039>041-046>048-054>057-064-112100-
   West Central Minnesota

CITY           SKY/WX    TMP DP  RH WIND       PRES   REMARKS
FERGUS FALLS   CLOUDY    14   5  67 S8        30.23F WCI   3
WHEATON        CLOUDY    16  10  79 S8        30.22F WCI   5
MORRIS         CLOUDY    12   7  79 S9        30.20F WCI   0
ALEXANDRIA     FLURRIES  13   5  70 SW10      30.18F WCI   0
ELBOW LAKE     CLOUDY    13   6  73 S10       30.19F HAZE    WCI   0
WADENA         CLOUDY    14   1  57 SW9       30.17F WCI   2
GLENWOOD       CLOUDY    12   7  79 SW10      30.19F WCI  -1
APPLETON       CLOUDY    16   7  67 SE6       30.22F WCI   7
BENSON         FLURRIES  16   3  57 CALM      30.22F
ORTONVILLE     CLOUDY    14   7  73 SE6       30.20F WCI   5
MADISON        CLOUDY    18  10  73 S6        30.21F WCI   9
WILLMAR        CLOUDY    16   7  67 S3        30.23F
$$
MNZ033>034-036-042>043-049>051-058-059-112100-
   Central Minnesota

CITY           SKY/WX    TMP DP  RH WIND       PRES   REMARKS
ST CLOUD       CLOUDY    13   0  56 S8        30.22F WCI   2
SAUK CENTRE    FLURRIES  14   7  74 SW8       30.20F WCI   3
PAYNESVILLE    FLURRIES  15   6  69 SW8       30.22F WCI   4
AITKIN         CLOUDY    14  -6  41 SW6       30.18F WCI   5
PINE RIVER     CLOUDY    12   0  57 SW6       30.21S WCI   3
BRAINERD       CLOUDY    12  -2  53 SW7       30.19F WCI   1
STAPLES        CLOUDY    12   0  57 SW5       30.18F WCI   4
LONG PRAIRIE   LGT SNOW  14   5  67 S8        30.19F WCI   3
LITTLE FALLS   CLOUDY    14   0  52 SW3       30.21F
LITCHFIELD     CLOUDY    18   7  62 SW5       30.22F WCI  11
BUFFALO        CLOUDY    15   0  51 S5        30.24F WCI   8
MAPLE LAKE     CLOUDY    16   4  58 S7        30.24F WCI   7
$$
MNZ037-044-045-052-053-112100-
   East Central Minnesota

CITY           SKY/WX    TMP DP  RH WIND       PRES   REMARKS
PRINCETON      CLOUDY    16   1  53 SW6       30.22F WCI   7
MORA           CLOUDY    14  -4  44 SW6       30.24F WCI   5
CAMBRIDGE      CLOUDY    16   1  53 CALM      30.22F
RUSH CITY      CLOUDY    13  -3  48 S3        30.23F
MOOSE LAKE     CLOUDY    18  -6  35 S6        30.17F WCI   9
HINCKLEY       CLOUDY    14  -2  48 SW7       30.22F WCI   4
CLOQUET        CLOUDY    10  -8  44 SW7       30.15F WCI   0
MCGREGOR       CLOUDY    14  -4  44 SW7       30.19S WCI   4
$$
MNZ071>073-080-081-089-090-097-098-112100-
   Southwest Minnesota

CITY           SKY/WX    TMP DP  RH WIND       PRES   REMARKS
MONTEVIDEO     CLOUDY    16   9  73 S3        30.24S
GRANITE FALLS  CLOUDY    18  10  73 S9        30.23F WCI   6
CANBY          LGT SNOW  21  14  75 SW8       30.20F WCI  12
MARSHALL       LGT SNOW  19  11  70 S8        30.20F WCI   9
REDWOOD FALLS  CLOUDY    14   4  64 S12       30.23F WCI   0
OLIVIA         CLOUDY    18   5  57 S7        30.23S WCI   8
PIPESTONE      FLURRIES  18   7  62 S12       30.15F WCI   5
WINDOM         MOSUNNY   16   3  57 S7        30.19F WCI   6
WORTHINGTON    CLOUDY    14   7  73 S13       30.19F WCI   0
JACKSON        CLOUDY    16   5  62 S12       30.20F WCI   3
TRACY          LGT SNOW  18  11  74 S10       30.20S WCI   6
SLAYTON        FLURRIES  15  11  83 S13       30.18S WCI   2
$$
MNZ065>067-074>077-082>085-091>093-112100-
   South Central Minnesota

CITY           SKY/WX    TMP DP  RH WIND       PRES   REMARKS
MANKATO        MOSUNNY   16   0  48 S9        30.25F WCI   4
NEW ULM        CLOUDY    14   1  57 S12       30.23F WCI   0
ST JAMES       CLOUDY    14   7  73 S9        30.25F WCI   2
FAIRMONT       CLOUDY    12   1  62 S10       30.22F WCI  -1
GLENCOE        CLOUDY    17   8  67 S9        30.23F WCI   6
FARIBAULT      CLOUDY    16   1  53 SE7       30.25F WCI   6
OWATONNA       PTSUNNY   16   0  48 SW8       30.23F WCI   5
WASECA         SUNNY     18   5  57 S9        30.25F WCI   6
ALBERT LEA     SUNNY     14   1  57 S7        30.23F WCI   4
$$
MNZ078>079-086>088-094>096-112100-
   Southeast Minnesota

CITY           SKY/WX    TMP DP  RH WIND       PRES   REMARKS
ROCHESTER      SUNNY     10   0  63 S12       30.23F WCI  -5
STANTON        CLOUDY    16   0  49 S5        30.24F WCI   9
DODGE CENTER   MOSUNNY   16   1  53 S7        30.22F WCI   6
WINONA         MOSUNNY   19   0  42 SW5       30.29F WCI  13
AUSTIN         MOSUNNY   12   1  62 S12       30.24F WCI  -2
PRESTON        SUNNY     13  -3  49 SW8       30.25F WCI   1
$$
ABBREVIATIONS USED IN REMARKS
   TC - TEMPERATURES IN CELSIUS
  WCI - WIND CHILL INDEX
   HX - HEAT INDEX
  VSB - VISIBILITY
$$




USA.gov is the U.S. government's official web portal to all federal, state and local government web resources and services.